Retour au catalogue

STARLINK-37622

ActifCommunicationsVLEO
NORAD 69829·PAYLOAD·🇺🇸 United States

Lancé Jul 5, 2026 depuis Cape Canaveral Space Force Station

Loading…

Prochains Passages (prochaines 24 heures)

TLE

FraisSource: CelesTrak SupGP

Époque: Sep 15, 2026, 04:35 UTC

1 69829C 26154L   26258.19145833  .00072831  00000+0  21515-2 0  2583
2 69829  53.1597 356.6382 0001240  91.1640 204.3092 15.34359291    10

Suivez STARLINK-37622 en temps réel avec AllMySat

Download on the App Store